Date,TemperatureHighF,TemperatureAvgF,TemperatureLowF,DewpointHighF,DewpointAvgF,DewpointLowF,HumidityHigh,HumidityAvg,HumidityLow,PressureMaxIn,PressureMinIn,WindSpeedMaxMPH,WindSpeedAvgMPH,GustSpeedMaxMPH,PrecipitationSumIn
2013-1-1,72.9,72.9,72.9,50.7,50.7,50.7,36,36,36,27.05,26.96,23,6,23,0.04
2013-1-2,72.9,72.9,72.9,50.7,50.7,50.7,36,36,36,27.05,26.93,15,5,15,0.04
2013-1-3,72.9,72.9,72.9,50.7,50.7,50.7,36,36,36,27.08,26.99,23,6,23,0.00
2013-1-4,78.6,72.5,64.4,51.3,50.9,50.2,60,46,26,27.08,27.02,18,7,18,0.00
2013-1-5,73.9,69.7,63.9,51.8,49.3,48.2,59,47,42,27.08,26.99,36,8,36,0.04
2013-1-6,74.5,70.9,66.0,51.0,49.7,48.3,51,45,35,27.05,26.96,21,7,21,0.04
2013-1-7,70.0,70.0,70.0,51.0,51.0,51.0,51,51,51,27.02,26.93,26,8,26,0.04
2013-1-8,70.0,70.0,70.0,51.0,51.0,51.0,51,51,51,27.02,26.87,25,7,25,0.04
2013-1-9,70.0,70.0,70.0,51.0,51.0,51.0,51,51,51,27.05,26.96,23,7,23,0.04
2013-1-10,70.0,70.0,70.0,51.0,51.0,51.0,51,51,51,27.05,26.93,30,9,30,0.04
2013-1-11,76.5,73.2,67.1,51.0,51.0,51.0,51,40,32,27.02,26.93,29,10,29,0.04
2013-1-12,76.5,76.5,76.5,51.0,51.0,51.0,32,32,32,27.05,26.96,23,6,23,0.04
2013-1-13,76.5,76.5,76.5,51.0,51.0,51.0,32,32,32,27.05,26.99,20,6,20,0.04
2013-1-14,76.5,76.5,76.5,51.0,51.0,51.0,32,32,32,27.08,26.99,18,6,18,0.04
2013-1-15,76.5,76.5,76.5,51.0,51.0,51.0,32,32,32,27.05,26.99,17,5,17,0.04
2013-1-16,76.5,76.5,76.5,51.0,51.0,51.0,32,32,32,27.08,27.02,19,4,19,0.00
2013-1-17,76.5,76.5,76.5,51.0,51.0,51.0,32,32,32,27.11,26.99,26,8,26,0.04
2013-1-18,76.5,76.5,76.5,51.0,51.0,51.0,32,32,32,27.11,26.99,30,10,30,0.04
2013-1-19,76.5,76.5,76.5,51.0,51.0,51.0,32,32,32,27.11,26.99,32,10,32,0.00
2013-1-20,76.5,76.5,76.5,51.0,51.0,51.0,32,32,32,27.08,26.96,30,10,30,0.04
2013-1-21,76.5,76.5,76.5,51.0,51.0,51.0,32,32,32,27.08,26.99,21,7,21,0.04
2013-1-22,76.5,76.5,76.5,51.0,51.0,51.0,32,32,32,27.11,26.99,20,7,22,0.04
2013-1-23,76.5,76.5,76.5,51.0,51.0,51.0,32,32,32,27.17,27.05,25,8,25,0.04
2013-1-24,76.5,76.5,76.5,51.0,51.0,51.0,32,32,32,27.17,27.05,28,7,28,0.04
2013-1-25,76.5,76.5,76.5,51.0,51.0,51.0,32,32,32,27.14,27.05,20,7,20,0.04
2013-1-26,76.5,76.5,76.5,51.0,51.0,51.0,32,32,32,27.14,27.05,20,7,20,0.04
2013-1-27,76.5,76.5,76.5,51.0,51.0,51.0,32,32,32,27.11,27.05,23,8,23,0.04
2013-1-28,76.5,76.5,76.5,51.0,51.0,51.0,32,32,32,27.14,27.05,22,8,22,0.04
2013-1-29,76.5,76.5,76.5,51.0,51.0,51.0,32,32,32,27.14,27.05,27,6,27,0.04
2013-1-30,76.5,76.5,76.5,51.0,51.0,51.0,32,32,32,27.08,26.99,17,5,17,0.04
2013-1-31,76.5,76.5,76.5,51.0,51.0,51.0,32,32,32,27.08,26.99,25,8,25,0.04
2013-2-1,76.5,76.5,76.5,51.0,51.0,51.0,32,32,32,27.11,27.02,33,11,33,0.04
2013-2-2,76.5,76.5,76.5,51.0,51.0,51.0,32,32,32,27.11,27.02,28,10,28,0.04
2013-2-3,76.5,76.5,76.5,51.0,51.0,51.0,32,32,32,27.11,27.02,19,6,19,0.04
2013-2-4,76.5,76.5,76.5,51.0,51.0,51.0,32,32,32,27.11,27.02,16,5,16,0.04
2013-2-5,76.5,76.5,76.5,51.0,51.0,51.0,32,32,32,27.11,27.02,22,6,22,0.98
2013-2-6,76.5,76.5,76.5,51.0,51.0,51.0,32,32,32,27.14,27.02,18,6,18,0.04
2013-2-7,76.5,76.5,76.5,51.0,51.0,51.0,32,32,32,27.11,27.02,19,6,19,0.04
2013-2-8,76.5,76.5,76.5,51.0,51.0,51.0,32,32,32,27.11,27.02,27,7,27,0.04
2013-2-9,76.5,76.5,76.5,51.0,51.0,51.0,32,32,32,27.11,27.02,26,8,26,0.04
2013-2-10,76.5,76.5,76.5,51.0,51.0,51.0,32,32,32,27.14,27.05,21,7,21,0.04
2013-2-11,76.5,76.5,76.5,51.0,51.0,51.0,32,32,32,27.14,27.05,17,6,17,0.04
2013-2-12,76.5,76.5,76.5,51.0,51.0,51.0,32,32,32,27.14,27.05,17,5,17,0.04
2013-2-13,76.5,76.5,76.5,51.0,51.0,51.0,32,32,32,27.11,27.02,15,4,15,0.04
2013-2-14,76.5,76.5,76.5,51.0,51.0,51.0,32,32,32,27.14,27.02,13,5,13,0.75
2013-2-15,76.5,76.5,76.5,51.0,51.0,51.0,32,32,32,27.11,27.02,17,6,17,0.04
2013-2-16,76.5,76.5,76.5,51.0,51.0,51.0,32,32,32,27.14,27.02,22,7,22,0.04
2013-2-17,76.5,76.5,76.5,51.0,51.0,51.0,32,32,32,27.14,27.02,30,10,30,0.04
2013-2-18,76.5,76.5,76.5,51.0,51.0,51.0,32,32,32,27.11,26.99,28,10,28,0.04
2013-2-19,76.5,76.5,76.5,51.0,51.0,51.0,32,32,32,27.08,26.99,24,8,24,0.04
2013-2-20,76.5,76.5,76.5,51.0,51.0,51.0,32,32,32,27.05,26.99,23,8,23,0.04
2013-2-21,76.5,76.5,76.5,51.0,51.0,51.0,32,32,32,27.08,26.96,23,8,23,0.04
2013-2-22,76.5,76.5,76.5,51.0,51.0,51.0,32,32,32,27.11,26.99,17,6,17,0.04
2013-2-23,76.5,76.5,76.5,51.0,51.0,51.0,32,32,32,27.11,27.02,17,4,17,0.04
2013-2-24,76.5,76.5,76.5,51.0,51.0,51.0,32,32,32,27.11,26.99,15,5,15,0.04
2013-2-25,76.5,76.5,76.5,51.0,51.0,51.0,32,32,32,27.05,26.96,16,3,16,0.04
2013-2-26,76.5,76.5,76.5,51.0,51.0,51.0,32,32,32,27.08,26.99,15,2,15,0.04
2013-2-27,76.5,76.5,76.5,51.0,51.0,51.0,32,32,32,27.11,27.02,25,6,25,0.04
2013-2-28,76.5,76.5,76.5,51.0,51.0,51.0,32,32,32,27.11,27.02,19,6,19,0.04
2013-3-1,76.5,76.5,76.5,51.0,51.0,51.0,32,32,32,27.11,26.99,17,7,17,0.04
2013-3-2,76.5,76.5,76.5,51.0,51.0,51.0,32,32,32,27.11,26.99,31,9,31,0.04
2013-3-3,76.5,76.5,76.5,51.0,51.0,51.0,32,32,32,27.14,27.02,38,15,38,0.04
2013-3-4,76.5,76.5,76.5,51.0,51.0,51.0,32,32,32,27.17,27.08,30,10,30,0.00
2013-3-5,76.5,76.5,76.5,51.0,51.0,51.0,32,32,32,27.17,27.08,22,7,22,0.04
2013-3-6,76.5,76.5,76.5,51.0,51.0,51.0,32,32,32,27.17,27.08,28,8,28,0.04
2013-3-7,76.5,76.5,76.5,51.0,51.0,51.0,32,32,32,27.14,27.05,27,11,27,0.00
2013-3-8,76.5,76.5,76.5,51.0,51.0,51.0,32,32,32,27.14,27.02,30,12,30,0.04
2013-3-9,76.5,76.5,76.5,51.0,51.0,51.0,32,32,32,27.17,27.02,21,8,21,0.04
2013-3-10,76.5,74.6,70.2,62.6,54.6,51.0,77,46,32,27.11,27.02,18,4,18,0.00
2013-3-11,77.0,66.8,63.9,62.6,56.2,53.8,77,69,47,27.11,27.02,17,4,17,0.04
2013-3-12,77.0,70.9,66.7,59.2,54.7,52.2,74,58,42,27.17,27.05,20,8,23,0.04
2013-3-13,69.3,66.9,64.9,56.3,54.7,48.6,70,65,54,27.17,27.05,26,8,26,0.04
2013-3-14,68.2,66.2,63.5,53.5,49.6,48.2,68,55,47,27.14,27.05,30,10,30,0.04
2013-3-15,69.3,66.3,62.2,52.3,49.0,48.4,70,51,34,27.14,27.02,29,11,29,0.04
2013-3-16,75.0,70.3,65.1,53.3,49.2,48.4,64,39,26,27.14,27.02,28,9,28,0.04
2013-3-17,84.7,70.1,62.6,61.5,54.1,48.4,87,58,31,27.17,27.08,17,4,17,0.04
2013-3-18,82.0,72.2,62.6,61.2,55.5,51.7,80,58,35,27.20,27.11,12,3,12,0.00
2013-3-19,81.5,70.4,64.4,66.0,56.8,49.8,90,63,47,27.17,27.08,14,3,14,0.04
2013-3-20,76.5,65.5,62.1,60.5,55.0,50.9,87,70,43,27.17,27.08,6,1,6,0.00